This demonstration page uses our WeatherBlox Daily Observations layout. Learn more.

Left ArrowRight Arrow

41.12389, -100.76542

Hourly Observations for September 23, 2017

Temp ( °F °C ) Dew Point ( °F °C ) Humidity (%) Winds ( mph kmh ) Pressure ( in mb ) Visibility ( mi km ) Precip ( " mm )
12:53 am 00:53 Clear 58 14.4 51 10.6 78 78 NNW 9 15 29.79 1009 10 16 0.00 0.00
1:53 am 01:53 Partly Cloudy 56 13.3 50 10 81 81 N 15 24 29.81 1010 10 16 0.00 0.00
2:51 am 02:51 Clear with Nearby Thunderstorms 55 13 48 9 77 77 NNE 13 20 29.83 1010 10 16 0.00 0.00
2:53 am 02:53 Clear with Nearby Thunderstorms 55 12.8 49 9.4 80 80 NNE 12 19 29.80 1009 10 16 0.00 0.00
3:17 am 03:17 Mostly Cloudy 56 13.3 49 9.4 77 77 NE 6 9 29.85 1011 10 16 0.00 0.00
3:34 am 03:34 Cloudy with Nearby Thunderstorms 56 13.3 49 9.4 77 77 NNE 10 17 29.85 1011 10 16 0.00 0.00
3:53 am 03:53 Cloudy with Nearby Thunderstorms 55 12.8 49 9.4 80 80 NNE 15 24 29.83 1010 10 16 0.00 0.00
4:00 am 04:00 Cloudy 55 12.8 49 9.4 80 80 NNE 13 20 29.85 1011 10 16 0.00 0.00
4:08 am 04:08 Cloudy with Nearby Thunderstorms 55 12.8 49 9.4 80 80 NNE 14 22 29.85 1011 10 16 0.00 0.00
4:36 am 04:36 Cloudy with Thunderstorms 54 12.2 48 8.9 80 80 NE 17 28 29.88 1012 10 16 0.00 0.03
4:53 am 04:53 Cloudy with Thunderstorms 54 12.2 49 9.4 83 83 NE 17 28 29.82 1010 10 16 0.00 0.03
5:01 am 05:01 Cloudy with Nearby Thunderstorms 54 12.2 49 9.4 83 83 NE 14 22 29.88 1012 10 16 0.00 0.03
5:18 am 05:18 Cloudy with Light Rain 54 12.2 49 9.4 83 83 NE 13 20 29.88 1012 10 16 0.00 0.03
5:53 am 05:53 Cloudy with Light Rain 54 12.2 49 9.4 83 83 NNE 7 11 29.84 1011 10 16 0.00 0.03
6:02 am 06:02 Cloudy with Nearby Thunderstorms 54 12.2 49 9.4 83 83 NE 10 17 29.88 1012 10 16 0.00 0.03
6:15 am 06:15 Mostly Cloudy with Thunderstorms 53 11.7 49 9.4 86 86 NNE 9 15 29.88 1012 10 16 0.00 0.03
6:53 am 06:53 Cloudy with Thunderstorms 52 11.1 49 9.4 89 89 NNE 13 20 29.84 1011 9 14 0.10 2.54
7:05 am 07:05 Cloudy with Thunderstorms 52 11.1 49 9.4 89 89 ENE 12 19 29.88 1012 10 16 0.00 0.03
7:39 am 07:39 Cloudy with Nearby Thunderstorms 52 11.1 50 10 93 93 NE 9 15 29.91 1013 10 16 0.00 0.03
7:53 am 07:53 Cloudy with Nearby Thunderstorms 52 11.1 50 10 93 93 NE 9 15 29.87 1012 10 16 0.00 0.03
8:03 am 08:03 Cloudy 52 11.1 50 10 93 93 NE 10 17 29.91 1013 10 16 0.00 0.00
8:21 am 08:21 Cloudy 52 11.1 50 10 93 93 NE 8 13 29.91 1013 10 16 0.00 0.00
8:53 am 08:53 Cloudy 52 11.1 50 10 93 93 NE 12 19 29.90 1013 10 16 0.00 0.00
9:53 am 09:53 Cloudy 53 11.7 51 10.6 93 93 NE 12 19 29.91 1013 7 11 0.00 0.00
10:22 am 10:22 Cloudy with Mist and Fog 53 11.7 51 10.6 93 93 NNE 10 17 29.91 1013 5 8 0.00 0.00
10:53 am 10:53 Cloudy with Mist and Fog 53 11.7 52 11.1 96 96 NNE 10 17 29.91 1013 4 6 0.00 0.00
11:33 am 11:33 Cloudy with Mist and Fog 53 11.7 52 11.1 96 96 NNE 13 20 29.94 1014 3 4 0.00 0.00
11:53 am 11:53 Cloudy with Mist and Fog 53 11.7 52 11.1 96 96 NE 9 15 29.93 1014 3 4 0.00 0.00
12:28 pm 12:28 Cloudy with Light Rain 53 11.7 52 11.1 96 96 NE 13 20 29.94 1014 2 3 0.00 0.03
12:40 pm 12:40 Cloudy with Light Rain 54 12.2 53 11.7 97 97 NE 10 17 29.91 1013 2 3 0.00 0.03
12:53 pm 12:53 Cloudy with Light Rain 54 12.2 53 11.7 97 97 NE 10 17 29.93 1014 3 5 0.00 0.03
1:30 pm 13:30 Cloudy with Mist and Fog 54 12.2 53 11.7 97 97 NE 10 17 29.91 1013 6 10 0.00 0.03
1:53 pm 13:53 Cloudy 55 12.8 54 12.2 96 96 NNE 7 11 29.91 1013 10 16 0.00 0.03
2:53 pm 14:53 Cloudy with Light Rain 55 12.8 53 11.7 93 93 NW 14 22 29.95 1014 10 16 0.00 0.03
3:05 pm 15:05 Cloudy 56 13.3 53 11.7 90 90 WNW 16 26 29.88 1012 10 16 0.00 0.03
3:34 pm 15:34 Cloudy 56 13.3 51 10.6 84 84 N 13 20 29.88 1012 10 16 0.00 0.03
3:53 pm 15:53 Mostly Cloudy 58 14.4 52 11.1 81 81 N 8 13 29.90 1012 10 16 0.00 0.03
4:53 pm 16:53 Cloudy with Rain 55 12.8 52 11.1 90 90 E 14 22 29.94 1014 5 8 0.02 0.51
5:53 pm 17:53 Mostly Cloudy with Light Rain 54 12.2 52 11.1 93 93 N 12 19 29.88 1012 10 16 0.12 3.05
6:15 pm 18:15 Cloudy 54 12.2 53 11.7 97 97 E 17 28 29.91 1013 10 16 0.00 0.03
6:23 pm 18:23 Cloudy with Nearby Thunderstorms 54 12.2 53 11.7 97 97 E 15 24 29.91 1013 10 16 0.00 0.03
6:36 pm 18:36 Cloudy with Heavy Rain 54 12.2 53 11.7 97 97 ENE 8 13 29.91 1013 3 5 0.02 0.51
6:43 pm 18:43 Cloudy with Rain 54 12.2 53 11.7 97 97 ENE 8 13 29.88 1012 3 4 0.07 1.78
6:50 pm 18:50 Cloudy with Light Rain 54 12 54 12 100 100 NE 13 20 29.88 1012 6 10 0.08 2.03
6:53 pm 18:53 Cloudy with Rain 54 12.2 53 11.7 97 97 NE 7 11 29.88 1012 5 8 0.08 2.03
7:03 pm 19:03 Cloudy with Light Rain 54 12.2 53 11.7 97 97 VRB 5 7 29.88 1012 10 16 0.01 0.25
7:53 pm 19:53 Cloudy 55 12.8 53 11.7 93 93 E 6 9 29.84 1011 10 16 0.03 0.76
8:06 pm 20:06 Cloudy with Nearby Thunderstorms 55 12.8 54 12.2 96 96 W 8 13 29.85 1011 10 16 0.00 0.00
8:14 pm 20:14 Cloudy with Nearby Thunderstorms 55 12.8 54 12.2 96 96 WNW 10 17 29.85 1011 10 16 0.00 0.03
8:29 pm 20:29 Cloudy with Heavy Rain 54 12.2 53 11.7 97 97 WNW 17 28 29.91 1013 2 3 0.13 3.30
8:40 pm 20:40 Cloudy with Heavy Rain 53 11.7 53 11.7 100 100 NNW 9 15 29.88 1012 3 5 0.21 5.33
8:53 pm 20:53 Cloudy with Light Rain 53 11.7 52 11.1 96 96 NW 9 15 29.91 1013 10 16 0.23 5.84
9:26 pm 21:26 Cloudy with Light Rain 53 11.7 52 11.1 96 96 NNW 5 7 29.91 1013 6 10 0.03 0.76
9:36 pm 21:36 Cloudy with Light Rain 53 11.7 52 11.1 96 96 WNW 10 17 29.91 1013 10 16 0.03 0.76
9:53 pm 21:53 Cloudy with Heavy Rain 53 11.7 51 10.6 93 93 N 8 13 29.91 1013 5 8 0.06 1.52
10:02 pm 22:02 Cloudy with Strong Thunderstorms 53 11.7 51 10.6 93 93 VRB 7 11 29.91 1013 3 4 0.05 1.27
10:07 pm 22:07 Cloudy with Strong Thunderstorms 52 11.1 51 10.6 97 97 N 10 17 29.91 1013 1 2 0.18 4.57
10:14 pm 22:14 Cloudy with Heavy Rain 52 11.1 51 10.6 97 97 NNE 9 15 29.88 1012 2 2 0.32 8.13
10:20 pm 22:20 Cloudy with Heavy Rain 52 11.1 51 10.6 97 97 NNE 12 19 29.88 1012 2 3 0.38 9.65
10:30 pm 22:30 Cloudy with Rain 52 11.1 51 10.6 97 97 NE 8 13 29.88 1012 4 6 0.41 10.41
10:48 pm 22:48 Cloudy with Rain 54 12 52 11 94 94 ESE 5 7 29.88 1012 6 10 0.46 11.68
10:53 pm 22:53 Cloudy with Rain 53 11.7 52 11.1 96 96 ENE 6 9 29.89 1012 5 8 0.47 11.94
11:04 pm 23:04 Cloudy with Rain 53 11.7 52 11.1 96 96 E 8 13 29.88 1012 6 10 0.04 1.02
11:53 pm 23:53 Cloudy with Light Rain 53 11.7 52 11.1 96 96 ENE 3 6 29.89 1012 8 13 0.16 4.06

Powered by AerisWeather